SCP
0 0 0 0 0 0 0 0 0 0 0 0 0 0 0 1 1 1 0 0 0 0 0 0 0 0 0 0 0 0 1 1 1 1 1 1 1 1 1 1 1 1 1
0 0 0 0 0 0 0 0 0 0 0 0 0 0 0 0 0 1 0 0 0 0 0 0 0 0 0 0 0 0 0 1 1 1 1 1 1 1 1 1 1 1 1
0 0 0 0 0 0 0 0 0 0 0 0 0 0 0 0 0 0 0 0 0 0 0 0 0 0 0 0 0 0 0 0 0 1 1 1 1 1 1 1 1 1 1
0 0 0 0 0 0 0 0 0 0 0 0 0 0 0 0 0 0 0 0 0 0 0 0 0 0 0 0 0 0 0 0 1 1 1 1 1 1 1 1 1 1 1
0 0 0 0 0 0 0 0 0 0 0 0 0 0 0 0 0 0 0 0 0 0 0 0 0 0 0 1 1 1 1 1 1 1 1 1 1 1 1 1 1 1 1
0 0 0 0 0 0 0 0 0 0 0 0 0 0 0 0 0 0 0 0 0 0 0 0 0 0 0 1 1 1 1 1 1 1 1 1 1 1 1 1 1 1 1
0 0 0 0 0 0 0 0 0 0 0 0 0 0 0 0 0 0 0 0 0 0 0 0 0 0 1 1 1 1 1 1 1 1 1 1 1 1 1 1 1 1 1
0 0 0 1 0 0 0 0 0 0 0 0 0 0 0 0 0 0 0 0 0 0 0 0 0 1 1 1 0 0 1 1 1 1 1 1 1 1 1 1 1 1 1
0 0 0 0 0 0 0 0 0 0 0 0 0 0 0 0 0 0 0 0 0 0 0 0 0 0 1 0 0 0 0 0 1 1 1 1 1 1 1 1 1 1 1
0 0 0 0 0 0 0 0 0 0 0 0 0 0 0 0 0 0 0 0 0 0 0 0 0 0 0 0 0 0 0 0 1 1 1 1 1 1 1 1 1 1 1
0 0 0 0 0 0 0 0 0 0 0 0 0 0 0 0 0 0 0 0 0 0 0 0 0 0 0 0 0 0 0 0 0 0 1 1 1 0 0 0 1 1 1
0 0 0 0 0 0 0 0 0 0 0 0 0 0 0 0 0 0 0 0 0 0 0 0 0 0 0 0 0 0 0 0 0 0 0 0 0 0 0 0 0 0 0
0 0 0 0 0 0 0 0 0 0 0 0 0 0 0 0 0 0 0 0 0 0 0 0 0 0 0 0 0 0 0 0 0 0 0 0 0 0 0 0 0 0 0
0 0 0 0 0 0 0 0 0 0 0 0 0 0 0 0 0 0 0 0 0 0 0 0 0 0 0 0 0 0 0 0 0 0 0 0 0 0 0 0 0 0 0
0 0 0 0 0 0 0 0 0 0 0 0 0 0 0 0 0 0 0 0 0 0 0 0 0 0 0 0 0 0 0 0 0 0 0 0 0 0 0 0 0 0 0
0 0 0 0 0 0 0 0 0 0 0 0 0 0 0 0 0 0 0 0 0 0 0 0 0 0 0 0 0 0 0 0 0 0 0 0 0 0 0 0 0 0 0
0 0 0 0 0 0 0 0 0 0 0 0 0 0 0 0 0 0 0 0 0 0 0 0 0 0 0 0 0 0 0 0 0 0 0 0 0 0 0 0 0 0 0
0 0 0 0 0 0 0 0 0 0 0 0 0 0 0 0 0 0 0 0 0 0 0 0 0 0 0 0 0 0 0 0 0 0 0 0 0 0 0 0 0 0 0
0 0 0 0 0 0 0 0 0 0 0 0 0 0 0 0 0 0 0 0 0 0 0 0 0 0 0 0 0 0 0 0 0 0 0 0 0 0 0 0 0 0 0
0 0 0 0 0 0 0 0 0 0 0 0 0 0 0 0 0 0 0 0 0 0 0 0 0 0 0 0 0 0 0 0 0 0 0 0 0 0 0 0 0 0 0
0 0 0 0 0 0 0 0 0 0 0 0 0 0 0 0 0 0 0 0 0 0 0 0 0 0 0 0 0 0 0 0 0 0 0 0 0 0 0 0 0 0 0
0 0 0 0 0 0 0 0 0 0 0 0 0 0 0 0 0 0 0 0 0 0 0 0 0 0 0 0 0 0 0 0 0 0 0 0 0 0 0 0 0 0 0
0 0 0 0 0 0 0 0 0 0 0 0 0 0 0 0 0 0 0 0 0 0 0 0 0 0 0 0 0 0 0 0 0 0 0 0 0 0 0 0 0 0 0
1 1 1 1 1 0 0 0 0 0 0 0 0 0 0 0 0 0 0 0 0 0 0 0 0 0 0 0 0 0 0 0 0 0 0 0 0 0 0 0 0 0 0
1 1 1 1 1 1 0 0 0 0 0 0 0 0 0 0 0 0 0 0 0 0 0 0 0 0 0 0 0 0 0 0 0 0 0 0 0 0 0 0 0 0 0
1 1 1 1 1 1 0 0 0 0 0 0 0 0 0 0 0 0 0 0 0 0 0 0 0 0 0 0 0 0 0 0 0 0 0 0 0 0 0 0 0 0 0
Wind_Speed
2 2 2 2 2 2 2 3 4 5 5 5 5 5 5 5 6 5 4 11 11 11 11 11 12 11 11 11 11 11 11 11 10 10 10 9 9 10 10 10 10 9 9
2 2 3 3 3 2 2 3 4 4 4 4 4 5 4 4 5 5 4 6 10 11 10 11 12 11 11 10 10 10 10 10 10 10 10 10 10 10 10 10 10 9 9
2 3 3 3 2 2 3 3 4 3 3 4 4 4 4 3 4 5 5 4 5 9 11 11 11 10 10 10 10 10 10 10 10 10 10 10 10 10 10 10 10 10 10
4 4 3 2 2 3 3 2 3 3 3 3 3 3 3 3 4 4 4 4 3 4 7 10 10 10 10 10 10 10 10 10 10 10 10 10 10 10 11 11 10 10 10
4 4 2 2 3 3 2 3 3 3 3 2 2 3 3 3 3 4 4 4 4 4 3 6 9 9 10 10 10 10 11 10 10 10 10 10 10 10 10 11 11 11 11
3 4 2 3 4 3 3 3 3 3 2 1 3 4 3 3 3 4 4 4 4 4 4 3 3 6 10 11 11 10 10 10 10 10 11 11 11 11 11 11 11 12 12
3 3 3 3 3 3 2 3 2 2 2 2 2 2 3 4 4 3 3 4 5 4 4 4 3 4 4 10 10 10 10 10 11 11 11 11 11 11 11 11 11 11 12
3 3 3 3 3 2 2 2 2 2 1 1 1 1 1 2 2 3 3 4 4 4 5 6 5 5 4 3 7 10 10 10 10 11 11 11 11 11 11 11 12 12 12
3 3 3 2 3 2 2 2 2 2 1 1 1 1 2 1 1 2 3 3 3 3 4 4 5 5 6 4 4 8 10 10 10 11 11 11 11 11 11 12 11 11 11
2 2 2 2 2 2 2 1 2 1 1 1 1 1 1 2 2 1 2 2 3 4 4 4 5 5 5 5 6 9 10 9 10 10 10 10 10 11 11 11 12 12 12
2 2 1 2 2 2 3 3 3 2 1 1 1 1 2 2 1 2 1 1 2 2 3 3 4 4 4 4 4 7 9 8 8 9 9 9 9 10 10 10 11 11 11
1 2 2 2 2 3 3 3 2 3 2 2 2 2 2 2 1 2 2 1 1 1 2 2 3 2 3 4 5 7 7 7 7 7 8 8 8 9 9 9 10 10 10
1 2 2 2 2 2 2 2 2 2 2 2 2 2 2 2 2 2 2 1 1 1 1 2 2 2 3 3 3 6 5 6 6 6 6 7 7 8 8 8 9 9 9
2 3 2 2 2 2 2 2 1 1 2 2 3 3 2 2 2 2 2 2 1 1 1 1 1 2 2 3 3 4 3 5 5 4 5 6 6 7 7 7 8 8 9
2 3 3 2 2 2 2 2 2 2 3 3 2 2 2 1 1 1 1 2 2 1 1 1 1 1 2 2 3 2 2 4 4 4 5 5 5 6 6 6 7 7 8
2 3 3 3 2 2 3 3 2 2 2 2 1 2 1 1 1 1 1 1 1 2 1 0 1 1 2 3 4 2 2 5 4 4 4 4 4 4 5 5 6 6 7
3 3 3 3 2 2 3 3 2 1 2 1 1 2 1 2 1 1 1 2 2 2 2 0 0 1 2 2 2 2 2 2 2 4 4 3 3 4 4 4 5 6 6
3 3 3 3 3 2 2 3 2 1 1 1 1 1 1 2 1 1 1 1 1 1 2 1 0 1 1 1 2 2 2 2 2 4 4 3 3 3 3 4 4 5 6
2 3 3 3 3 2 2 2 2 2 1 1 1 1 1 2 1 1 1 1 1 1 1 2 1 0 0 1 1 1 1 1 2 3 4 3 3 2 3 3 3 4 5
2 2 2 3 3 3 2 2 1 1 1 1 1 1 1 1 1 1 1 1 1 1 1 1 1 1 1 0 1 1 0 1 1 1 2 2 3 2 2 2 2 2 3
2 2 2 2 3 2 2 1 1 1 1 1 1 1 2 4 4 2 2 1 1 1 0 0 1 0 0 0 1 1 1 1 1 1 1 1 2 1 1 1 1 1 1
2 2 2 2 3 2 3 3 1 0 0 1 1 1 2 3 3 3 3 2 2 1 1 1 1 1 1 1 1 1 1 0 2 1 1 2 2 2 2 2 2 1 0
2 2 2 2 3 2 4 3 2 1 1 0 1 1 0 1 3 2 2 1 1 1 2 1 1 1 1 1 1 1 1 1 2 2 1 2 1 2 2 2 3 3 1
2 2 2 3 3 3 4 2 1 0 0 0 1 1 1 1 1 1 1 1 0 1 2 1 2 2 1 1 1 2 2 2 2 2 1 2 2 1 1 2 4 5 3
2 2 2 3 4 3 4 3 1 0 0 1 1 1 2 2 3 3 1 0 0 1 1 1 2 2 2 2 1 0 1 1 2 2 1 1 1 1 1 2 3 5 4
2 2 2 3 3 4 5 4 2 1 0 0 0 1 2 2 2 2 0 0 1 1 1 1 1 2 2 2 2 2 1 1 1 2 2 0 1 1 1 1 1 1 2
Wind_Direction
79 78 81 82 78 68 66 57 57 55 60 56 62 65 69 81 88 86 70 70 67 69 72 75 74 71 68 68 69 67 65 63 65 64 62 60 59 56 53 52 51 48 45
85 79 64 60 66 63 63 72 82 73 68 63 62 63 61 77 95 99 96 78 73 70 68 72 71 70 67 66 69 69 68 66 64 63 62 62 60 58 55 53 52 50 46
81 87 78 69 70 68 64 64 75 75 78 73 67 69 61 54 85 99 103 100 82 70 69 69 68 68 67 68 68 68 68 69 65 64 63 63 61 59 57 55 52 50 47
65 71 66 67 64 71 73 76 69 71 65 61 61 62 70 54 66 88 97 99 96 88 75 74 71 68 65 64 66 68 69 69 67 65 64 64 61 60 58 53 51 49 48
74 86 70 69 74 68 63 74 70 67 72 69 87 73 64 56 47 67 75 86 92 97 93 85 78 72 67 62 63 66 68 68 67 66 66 65 61 59 56 52 50 48 46
63 82 86 76 73 68 56 64 76 72 82 78 83 82 75 76 54 49 58 64 68 80 92 96 96 82 74 64 60 61 64 65 65 66 67 67 63 59 56 53 51 48 47
65 74 75 80 80 82 75 78 82 79 72 90 83 73 56 68 69 63 59 61 51 54 73 78 92 99 86 68 59 59 59 64 66 68 68 66 62 59 56 54 52 51 49
56 72 83 93 91 92 75 64 78 74 37 62 104 113 93 38 36 67 72 69 62 47 48 63 75 83 85 78 63 60 57 64 68 68 67 64 60 57 56 55 54 52 50
49 48 62 91 106 103 95 77 70 77 41 3 61 93 108 119 87 31 65 76 72 58 49 48 60 69 80 79 70 57 60 62 66 65 64 61 59 59 56 54 51 49 48
73 54 40 61 93 95 105 108 93 79 74 15 8 36 80 120 129 93 26 54 74 65 56 55 58 64 72 76 75 71 67 62 64 63 62 60 58 57 55 53 51 50 48
88 85 46 49 70 89 91 77 78 57 65 63 38 34 38 40 62 117 113 63 59 59 68 65 66 64 74 78 79 75 72 68 64 60 58 56 54 54 53 51 50 49 47
91 85 68 55 65 68 77 76 80 68 55 53 49 56 63 60 42 79 111 122 103 74 83 78 80 74 78 80 83 83 82 76 70 61 55 51 50 50 49 47 47 45 43
114 109 84 66 79 79 84 75 67 84 80 65 64 60 55 54 49 71 98 110 109 131 95 78 90 90 91 94 91 92 92 89 79 66 58 55 52 49 47 43 41 38 35
138 130 111 92 92 96 90 83 67 75 85 77 75 73 70 54 54 67 90 102 87 57 79 101 72 89 88 102 104 107 98 101 88 76 67 61 55 51 46 40 36 34 32
134 130 131 122 110 109 103 89 67 59 65 67 70 75 81 71 66 63 72 101 115 105 56 103 90 120 117 103 118 114 108 106 102 93 81 68 59 53 47 41 36 31 28
123 133 134 130 134 122 113 97 80 65 77 80 87 82 72 66 56 52 52 39 77 127 117 111 154 164 138 125 128 120 116 116 109 108 96 79 65 58 50 42 36 31 25
147 148 143 138 137 138 127 114 132 132 106 113 109 99 86 75 68 56 56 41 39 85 116 261 102 131 119 111 118 133 137 129 115 117 117 97 76 67 56 48 40 33 26
161 165 151 146 152 153 136 135 136 109 110 118 106 106 122 106 85 58 72 59 58 88 121 138 14 68 113 153 155 154 133 127 133 129 133 128 109 85 70 55 45 38 31
162 164 150 150 145 137 136 142 144 150 164 179 167 145 134 124 136 122 120 108 85 87 105 127 191 225 224 163 102 86 111 134 159 150 149 148 144 120 90 67 51 42 35
156 147 139 146 145 141 124 126 138 157 184 173 114 82 67 80 89 86 98 88 96 85 89 112 171 224 215 211 117 139 293 263 217 171 159 163 171 159 133 99 62 51 37
133 130 125 117 114 110 99 97 111 151 124 111 104 101 93 87 79 77 75 61 71 85 85 121 212 222 229 134 213 214 224 260 264 207 181 206 181 184 175 172 137 53 22
104 107 114 113 109 103 97 86 49 334 149 145 132 130 133 125 114 102 86 76 99 145 201 222 238 218 243 224 215 219 206 239 287 275 176 243 181 189 192 181 174 163 200
127 132 139 131 132 113 109 87 42 13 342 12 122 116 196 152 157 160 168 170 15 297 222 207 229 233 228 245 222 284 268 250 243 241 163 260 219 203 207 180 178 183 196
155 168 157 148 136 129 127 107 52 336 297 243 180 178 166 119 78 76 154 123 195 298 257 219 207 236 227 236 176 206 224 258 280 292 167 241 247 217 204 196 199 194 204
175 178 163 155 152 154 151 137 108 249 296 303 42 56 86 93 59 34 69 149 237 285 299 185 198 214 227 265 250 91 275 264 285 287 281 223 263 239 225 222 220 212 216
175 173 170 173 166 156 163 163 165 185 229 309 44 69 89 101 72 37 37 177 226 255 301 327 317 298 276 276 268 199 202 223 259 278 286 291 297 340 304 247 216 227 234